Wind_Speed
38 39 40 41 41 41 40 40 41 44 42 41 41 37 36 38 39 39 37 34 30 27 25 25 24 22 24 22 24 22 21 22 24 24 23 20 17 13 13 13 15 18 21 16
34 34 35 37 38 38 38 38 41 40 42 42 41 40 39 41 42 40 39 34 31 28 26 25 24 23 23 23 24 20 19 20 21 18 17 14 11 10 10 12 15 16 18 17
30 31 31 30 31 32 33 34 37 41 40 41 43 43 43 44 42 42 38 35 32 29 28 27 25 25 24 24 20 19 18 18 17 15 15 12 10 10 12 14 17 17 18 17
27 27 26 25 26 27 28 30 34 38 40 41 44 46 47 45 42 42 39 37 33 30 28 27 25 24 24 20 18 17 17 15 15 14 13 11 11 11 13 14 16 17 19 18
26 25 24 24 23 24 25 27 32 36 39 41 43 46 46 41 40 42 39 36 33 30 29 27 23 24 22 17 16 16 14 13 14 15 13 11 11 13 14 15 17 19 20 22
23 22 22 23 24 24 24 26 31 37 39 40 42 48 45 39 41 40 37 35 33 30 29 26 23 23 21 16 15 14 12 12 14 14 12 12 14 15 17 19 20 22 23 26
21 21 21 22 22 24 25 27 32 37 38 40 42 41 40 39 40 39 37 35 31 30 29 24 22 22 19 16 14 13 11 11 12 13 14 14 16 19 21 24 25 27 29 29
18 19 19 21 23 24 26 27 31 35 35 37 35 37 36 38 38 37 36 33 32 30 27 24 21 19 17 15 14 12 11 12 13 14 16 18 19 23 26 27 27 31 32 33
16 17 18 20 22 23 26 27 29 33 33 30 30 30 36 38 36 36 33 32 32 29 28 21 19 18 17 15 13 12 12 12 14 16 19 23 24 26 32 32 33 34 34 34
15 15 17 19 20 22 25 27 30 32 30 29 19 34 36 36 36 33 32 32 30 28 24 20 18 16 16 15 13 12 13 14 16 19 23 27 28 32 35 35 34 32 32 29
15 14 15 17 19 22 25 27 29 30 30 28 28 32 33 34 34 33 32 31 28 25 21 19 16 15 15 14 13 13 14 16 18 22 27 31 33 35 34 32 31 28 25 22
15 14 13 15 18 22 26 26 29 28 30 23 25 32 27 32 33 32 32 28 26 22 19 17 16 15 15 13 12 13 14 16 20 25 29 31 32 32 31 30 27 22 20 17
14 13 13 15 19 23 26 26 31 28 29 25 23 32 31 29 31 31 29 30 26 22 20 17 17 16 15 11 11 12 14 16 21 26 29 28 29 28 27 22 18 13 13 14
15 13 13 15 20 25 29 30 29 30 35 26 28 34 33 30 30 30 30 28 23 20 17 16 17 16 13 10 10 12 14 18 23 27 27 26 25 22 19 13 13 12 10 12
16 14 14 16 21 26 31 25 30 32 33 30 29 34 34 30 26 29 29 27 23 19 16 17 17 16 11 8 8 10 14 20 24 26 24 23 22 10 12 13 13 17 18 19
18 15 16 17 20 25 32 28 27 33 31 39 27 32 37 29 29 29 29 28 24 20 18 17 16 14 10 7 8 11 16 21 23 22 24 14 10 14 17 20 24 23 22 21
20 17 17 18 19 23 29 27 33 32 34 36 36 27 33 33 25 30 27 26 25 21 19 18 17 13 9 8 9 12 17 21 22 24 10 15 20 23 25 25 24 26 27 29
22 20 19 19 19 22 27 27 33 33 39 40 33 23 28 31 33 29 28 27 25 21 21 18 17 13 9 8 9 13 17 19 21 11 18 26 29 29 28 29 29 29 30 34
25 23 21 20 20 23 27 28 28 33 39 43 29 32 40 25 28 28 29 31 23 22 21 19 17 14 9 8 8 11 14 16 11 18 28 31 35 37 37 38 40 45 46 46
28 26 24 23 21 23 26 29 29 33 40 41 29 32 40 29 27 28 28 30 25 23 22 19 17 14 10 6 6 8 11 10 24 21 35 36 37 39 41 42 42 42 41 41
31 30 28 26 23 23 26 31 28 36 46 49 37 35 31 33 32 31 32 28 27 26 23 19 16 13 9 4 2 5 9 19 25 32 33 37 34 33 33 33 34 35 36 38
34 33 32 30 26 25 27 31 29 33 42 45 45 35 26 34 35 33 33 30 26 26 23 20 17 14 8 5 4 4 20 28 33 35 33 33 33 30 28 28 30 32 37 39
38 37 35 32 30 27 29 31 33 28 41 43 52 43 31 31 35 33 33 31 25 25 23 19 18 13 9 8 6 16 24 30 32 33 34 32 31 29 29 28 33 38 35 33
42 41 39 37 34 32 30 32 33 31 35 39 43 48 38 33 32 33 33 33 25 25 21 20 19 15 12 11 11 25 26 31 32 31 31 32 29 29 28 29 31 31 28 29
45 45 43 41 37 34 32 30 32 34 34 35 40 43 41 35 37 37 33 32 27 24 22 24 21 15 15 14 17 28 29 29 29 29 28 27 26 26 26 26 26 26 24 25
49 49 46 43 40 37 35 33 32 36 37 38 38 36 40 44 39 36 33 34 25 24 24 24 22 17 18 17 24 30 29 28 27 25 25 25 23 23 23 22 22 20 18 18
54 52 48 45 44 41 38 37 35 39 40 40 40 40 35 48 45 39 33 31 26 27 26 26 24 20 20 20 28 33 30 28 25 23 21 21 20 19 18 18 17 15 13 11
Wind_Direction
258 258 257 257 256 255 251 244 242 236 234 231 230 230 226 220 221 224 228 229 231 234 243 250 251 256 260 265 276 285 287 295 301 307 308 311 313 324 329 341 346 347 348 345
259 258 256 254 253 251 251 245 240 236 232 228 226 224 219 215 218 220 224 225 226 229 238 244 248 251 256 263 275 285 289 301 310 313 316 320 326 340 341 348 346 353 348 351
257 256 254 252 249 247 245 241 236 230 231 225 223 220 215 211 214 220 222 222 223 227 233 240 244 249 255 263 277 281 294 305 309 316 315 317 331 342 351 350 346 342 336 334
256 256 255 253 248 246 243 238 232 222 217 222 219 216 211 208 212 219 219 220 221 226 232 238 244 251 255 266 271 282 292 302 309 311 312 329 334 341 346 343 337 329 325 320
254 255 255 252 246 245 243 236 225 216 213 214 214 213 210 208 209 217 217 219 221 224 229 236 244 251 256 264 268 280 289 299 308 311 318 328 325 334 333 328 326 323 317 312
257 256 252 250 243 240 239 232 220 211 208 209 211 210 208 206 209 215 216 217 220 224 228 233 239 245 254 261 268 276 285 299 310 309 314 324 321 321 320 319 319 315 310 308
255 254 250 247 240 237 232 224 216 208 204 207 209 212 208 208 209 213 214 216 218 224 228 229 238 243 252 256 267 268 280 300 309 311 316 320 316 317 318 316 311 307 307 305
255 251 246 241 237 232 230 222 210 203 201 204 210 209 204 207 209 211 211 213 215 221 224 225 234 241 249 256 257 258 277 295 304 312 315 316 315 315 315 312 306 305 304 304
252 249 243 238 236 231 225 217 203 198 194 198 206 203 203 204 205 209 210 210 215 218 222 225 228 238 248 251 251 257 275 292 306 314 314 313 316 313 310 310 310 312 308 305
248 248 244 236 231 224 216 207 195 191 187 182 183 202 199 201 201 204 205 209 214 218 220 221 224 238 243 244 245 258 276 296 307 313 313 309 311 310 313 315 314 310 306 308
246 247 243 234 223 215 205 195 187 185 185 191 202 202 191 198 197 200 202 208 212 214 216 218 224 233 237 240 249 265 284 303 309 310 309 308 316 317 319 317 313 314 317 319
244 244 239 226 214 205 193 188 181 179 184 176 190 194 193 194 195 196 201 206 212 213 212 213 223 234 232 242 255 275 294 304 309 311 311 318 319 320 318 317 321 326 327 337
240 238 230 217 205 199 186 179 174 183 183 160 183 188 180 187 198 196 197 204 211 210 210 214 222 224 227 243 268 285 296 307 311 317 323 324 322 320 320 330 334 345 351 339
234 232 223 209 201 192 183 183 184 187 191 159 175 188 188 190 197 195 199 203 204 206 206 214 217 217 226 249 271 282 300 310 320 325 326 327 326 327 335 354 357 4 14 31
229 225 217 207 197 194 190 191 193 183 195 178 165 190 190 185 197 197 200 201 202 201 205 208 214 212 224 251 268 290 308 321 329 331 334 329 334 9 19 28 49 61 64 67
224 221 215 206 198 193 192 199 191 187 192 192 155 175 181 174 199 202 199 202 202 197 202 204 207 207 222 241 277 307 323 328 339 338 337 356 44 48 58 74 80 80 76 72
221 218 216 206 196 193 192 193 193 192 195 192 166 172 186 184 199 199 200 197 201 198 197 204 197 199 220 248 289 321 327 344 342 343 39 71 75 74 84 86 77 77 74 80
218 216 214 207 194 189 191 195 192 193 190 186 167 165 187 195 200 196 197 198 196 194 197 200 191 196 218 258 302 322 344 349 351 45 91 87 80 82 84 81 84 86 87 89
215 213 210 207 194 189 187 190 190 199 196 192 165 159 187 188 194 194 196 198 194 195 196 195 191 203 230 267 303 337 357 357 54 101 99 92 87 86 88 89 91 95 95 95
213 210 208 205 198 191 187 189 194 197 201 186 167 151 169 185 189 190 192 194 202 198 195 193 197 208 230 257 308 5 359 75 109 106 105 99 94 94 96 97 96 97 98 98
212 209 207 203 199 194 189 190 193 197 197 188 167 155 162 183 188 187 190 192 198 194 192 189 191 199 210 226 54 10 95 110 121 130 118 111 105 100 98 100 102 101 99 100
213 210 206 202 199 196 191 189 194 199 195 194 188 175 171 178 187 189 189 193 193 191 189 185 185 193 191 167 105 108 126 125 131 131 124 115 110 106 103 104 104 104 108 106
213 210 206 202 200 199 195 192 193 195 195 196 198 200 194 178 187 188 192 195 195 190 187 176 191 190 185 150 154 140 138 138 140 135 129 122 117 113 111 110 113 115 109 105
213 210 206 204 202 200 198 195 192 193 194 196 201 203 200 187 191 192 195 197 195 190 177 177 190 188 175 157 156 141 145 146 146 143 135 129 123 117 113 113 118 116 111 105
213 209 206 203 203 202 202 197 191 190 189 189 200 202 201 198 191 196 196 196 196 181 178 186 192 185 165 168 158 149 156 154 152 150 143 134 129 124 121 116 115 111 113 111
211 207 205 203 205 204 204 199 191 188 187 186 194 196 210 210 199 194 193 194 190 185 186 188 195 183 169 172 161 154 164 165 162 158 152 143 136 131 127 125 122 122 123 115
207 203 204 203 206 206 205 200 193 191 188 187 185 173 206 208 205 200 194 194 192 187 187 189 194 184 174 176 166 162 170 169 165 165 159 150 145 141 136 133 131 132 132 119
Height
5622 5624 5625 5628 5631 5634 5639 5646 5652 5659 5667 5676 5683 5691 5698 5705 5709 5715 5720 5725 5730 5735 5737 5739 5740 5741 5741 5742 5742 5741 5738 5735 5733 5730 5725 5721 5717 5714 5711 5709 5707 5703 5701 5699
5613 5614 5616 5618 5621 5624 5628 5634 5641 5648 5656 5665 5673 5681 5688 5695 5700 5706 5712 5719 5724 5728 5732 5734 5735 5736 5737 5738 5738 5736 5734 5731 5728 5725 5722 5718 5715 5711 5709 5706 5704 5701 5700 5697
5605 5607 5608 5610 5612 5615 5620 5625 5630 5637 5645 5654 5662 5670 5678 5685 5691 5698 5705 5712 5717 5722 5726 5729 5730 5731 5733 5733 5733 5732 5730 5727 5725 5722 5719 5716 5712 5709 5707 5704 5701 5699 5697 5694
5597 5599 5601 5603 5605 5608 5612 5616 5620 5627 5635 5644 5652 5660 5669 5677 5684 5691 5698 5705 5711 5716 5720 5723 5725 5727 5728 5729 5729 5727 5726 5724 5721 5719 5716 5712 5710 5707 5704 5701 5699 5697 5694 5690
5590 5592 5594 5596 5599 5602 5605 5608 5613 5621 5628 5636 5645 5654 5663 5672 5677 5684 5693 5700 5706 5710 5715 5717 5720 5722 5724 5725 5725 5724 5722 5720 5718 5716 5713 5710 5708 5704 5701 5698 5696 5693 5690 5686
5584 5586 5588 5590 5593 5596 5598 5601 5606 5613 5621 5629 5638 5646 5656 5665 5672 5679 5687 5695 5700 5705 5710 5713 5715 5717 5719 5721 5721 5720 5719 5717 5715 5714 5711 5707 5705 5701 5699 5695 5692 5688 5684 5681
5579 5580 5582 5584 5586 5589 5592 5595 5601 5608 5616 5624 5632 5641 5652 5659 5667 5673 5682 5689 5695 5701 5705 5708 5711 5713 5716 5717 5717 5717 5715 5715 5713 5711 5708 5705 5702 5698 5694 5691 5688 5683 5679 5675
5573 5575 5576 5578 5580 5583 5586 5591 5596 5603 5612 5620 5628 5637 5646 5654 5662 5669 5677 5685 5691 5695 5700 5704 5706 5710 5712 5713 5713 5713 5713 5712 5710 5708 5704 5702 5699 5694 5690 5687 5683 5678 5673 5667
5569 5570 5571 5573 5575 5579 5582 5587 5592 5600 5609 5618 5625 5634 5641 5649 5658 5666 5674 5681 5686 5691 5695 5700 5703 5706 5708 5709 5710 5710 5710 5708 5707 5704 5700 5697 5694 5688 5684 5680 5676 5670 5664 5657
5564 5565 5567 5569 5572 5575 5579 5584 5590 5599 5607 5615 5621 5629 5636 5646 5655 5662 5670 5677 5683 5688 5693 5696 5700 5703 5705 5706 5707 5707 5707 5704 5703 5699 5695 5693 5687 5682 5678 5673 5670 5661 5655 5650
5560 5562 5564 5566 5569 5572 5577 5583 5589 5598 5606 5613 5619 5625 5634 5643 5652 5659 5667 5674 5680 5685 5689 5693 5697 5699 5701 5703 5704 5704 5703 5701 5698 5695 5691 5687 5681 5676 5672 5666 5659 5655 5649 5645
5557 5559 5561 5563 5566 5571 5576 5581 5588 5597 5604 5610 5616 5626 5634 5641 5650 5658 5664 5671 5677 5682 5687 5691 5694 5697 5699 5700 5701 5701 5700 5698 5695 5693 5687 5681 5676 5670 5663 5657 5653 5648 5645 5641
5554 5556 5559 5561 5565 5569 5575 5581 5588 5595 5603 5608 5616 5624 5633 5641 5648 5655 5663 5670 5674 5679 5684 5688 5691 5694 5697 5698 5699 5698 5697 5694 5691 5689 5682 5676 5670 5664 5658 5653 5650 5646 5643 5639
5552 5554 5556 5559 5563 5568 5574 5581 5588 5595 5600 5603 5616 5622 5631 5639 5646 5652 5660 5667 5672 5677 5682 5685 5689 5692 5695 5696 5697 5696 5695 5692 5689 5683 5678 5672 5665 5659 5655 5651 5648 5645 5641 5639
5549 5552 5555 5557 5562 5567 5574 5580 5586 5593 5599 5602 5612 5620 5630 5637 5644 5651 5658 5664 5670 5675 5680 5683 5687 5690 5694 5694 5694 5693 5692 5689 5685 5680 5674 5667 5662 5657 5654 5652 5648 5645 5643 5641
5546 5550 5552 5556 5560 5565 5572 5578 5584 5590 5596 5600 5610 5618 5627 5634 5642 5649 5656 5662 5668 5673 5677 5681 5685 5689 5692 5693 5693 5692 5690 5686 5682 5677 5670 5664 5662 5659 5656 5653 5651 5650 5648 5646
5543 5547 5550 5554 5559 5564 5570 5576 5582 5588 5593 5599 5608 5617 5626 5633 5640 5647 5654 5661 5666 5671 5676 5679 5684 5688 5690 5691 5691 5690 5687 5684 5680 5673 5670 5668 5665 5662 5660 5658 5657 5655 5653 5652
5539 5544 5548 5552 5557 5562 5568 5573 5579 5585 5591 5598 5607 5615 5625 5632 5638 5645 5652 5659 5664 5670 5674 5678 5683 5686 5689 5690 5690 5688 5686 5683 5678 5675 5673 5674 5670 5667 5665 5664 5662 5661 5660 5659
5536 5541 5546 5550 5555 5560 5566 5572 5577 5581 5590 5597 5606 5612 5624 5629 5636 5643 5650 5656 5662 5668 5672 5677 5682 5685 5687 5689 5689 5688 5686 5684 5681 5681 5679 5679 5676 5675 5673 5671 5670 5670 5670 5669
5532 5538 5543 5548 5553 5558 5563 5570 5575 5579 5584 5594 5603 5609 5619 5628 5635 5641 5648 5654 5660 5665 5671 5675 5680 5683 5686 5687 5688 5688 5687 5685 5686 5688 5686 5685 5684 5684 5683 5682 5681 5680 5679 5678
5527 5533 5539 5545 5550 5556 5561 5566 5572 5576 5584 5593 5601 5609 5616 5624 5632 5638 5645 5652 5657 5663 5669 5674 5678 5682 5685 5686 5688 5688 5687 5687 5687 5688 5691 5690 5690 5691 5691 5690 5689 5687 5686 5687
5521 5528 5535 5542 5548 5553 5559 5563 5569 5574 5582 5591 5599 5606 5615 5621 5628 5635 5643 5649 5655 5661 5667 5672 5676 5681 5683 5686 5687 5688 5688 5689 5691 5691 5693 5694 5694 5695 5695 5695 5695 5694 5694 5693
5516 5523 5531 5538 5544 5550 5555 5560 5567 5573 5579 5588 5596 5605 5613 5619 5625 5634 5641 5648 5654 5661 5666 5672 5676 5679 5682 5685 5687 5688 5689 5691 5692 5694 5694 5696 5698 5698 5699 5699 5699 5699 5699 5699
5509 5517 5526 5533 5540 5546 5553 5558 5565 5572 5578 5587 5594 5602 5611 5618 5625 5631 5638 5646 5653 5659 5666 5671 5674 5677 5681 5684 5686 5687 5692 5693 5695 5696 5698 5699 5700 5702 5703 5702 5702 5703 5704 5704
5501 5510 5519 5528 5535 5542 5549 5556 5563 5570 5577 5584 5591 5600 5609 5615 5622 5629 5637 5646 5651 5658 5665 5667 5671 5676 5680 5684 5686 5688 5692 5694 5696 5698 5700 5701 5703 5704 5705 5706 5706 5707 5708 5706
5492 5503 5513 5522 5530 5537 5544 5551 5559 5567 5574 5581 5588 5598 5604 5610 5619 5628 5636 5643 5651 5657 5661 5666 5670 5675 5679 5683 5685 5688 5693 5696 5698 5700 5702 5703 5705 5706 5707 5707 5708 5709 5710 5709
5484 5496 5506 5515 5522 5530 5538 5546 5554 5561 5568 5576 5584 5593 5600 5604 5614 5626 5635 5643 5648 5653 5658 5662 5667 5672 5677 5681 5685 5688 5692 5696 5699 5702 5704 5704 5706 5707 5708 5709 5710 5711 5711 5711